Location: Newark
(43.6583°N, 1.6617°E)
Time: 04:42:09
(UTC+00:00)

Tiros 1 - Pass Details

Date: 01 September 2019
Orbit: 630 x 664 km, 48.4° (Epoch: 22 September)

Event Time Altitude Azimuth Distance (km) Brightness Sun altitude
Rises 03:36:41 0° 282° (WNW) 2,927 - -17.6°
Reaches altitude 10° 03:40:19 10° 253° (WSW) 2,020 - -17.0°
Maximum altitude 03:42:13 12° 228° (SW) 1,864 - -16.7°
Drops below altitude 10° 03:44:08 10° 204° (SSW) 2,023 - -16.4°
Exits shadow 03:47:25 - 177° (S) 2,822 10.2 -15.9°
Sets 03:47:47 0° 175° (S) 2,936 10.3 -15.8°
